Time,TemperatureF,DewpointF,PressureIn,WindDirection,WindDirectionDegrees,WindSpeedMPH,WindSpeedGustMPH,Humidity,HourlyPrecipIn,Conditions,Clouds,dailyrainin,SoftwareType,DateUTC
2013-01-13 00:00:00,0.3,-4.7,30.14,NW,304,3.0,6.0,79,0.00,,SKC,0.00,VWS V14.01,2013-01-13 06:00:00,
2013-01-13 00:03:00,0.2,-4.8,30.14,NW,309,4.0,5.0,79,0.00,,SKC,0.00,VWS V14.01,2013-01-13 06:03:00,
2013-01-13 00:05:00,0.2,-4.5,30.14,NW,319,5.0,7.0,80,0.00,,SKC,0.00,VWS V14.01,2013-01-13 06:05:00,
2013-01-13 00:08:00,0.2,-4.5,30.14,NNW,329,9.0,9.0,80,0.00,,SKC,0.00,VWS V14.01,2013-01-13 06:08:00,
2013-01-13 00:10:00,0.2,-4.5,30.14,NNW,343,6.0,10.0,80,0.00,,SKC,0.00,VWS V14.01,2013-01-13 06:10:00,
2013-01-13 00:13:00,0.2,-4.5,30.14,NW,317,5.0,7.0,80,0.00,,SKC,0.00,VWS V14.01,2013-01-13 06:13:00,
2013-01-13 00:15:00,0.2,-4.5,30.14,NW,313,7.0,9.0,80,0.00,,SKC,0.00,VWS V14.01,2013-01-13 06:15:00,
2013-01-13 00:18:00,0.1,-4.6,30.14,WNW,292,5.0,8.0,80,0.00,,SKC,0.00,VWS V14.01,2013-01-13 06:18:00,
2013-01-13 00:20:00,0.1,-4.6,30.14,NW,310,5.0,8.0,80,0.00,,SKC,0.00,VWS V14.01,2013-01-13 06:20:00,
2013-01-13 00:23:00,0.1,-4.7,30.14,WNW,300,4.0,9.0,80,0.00,,SKC,0.00,VWS V14.01,2013-01-13 06:23:00,
2013-01-13 00:25:00,0.1,-4.7,30.14,NW,317,3.0,9.0,80,0.00,,SKC,0.00,VWS V14.01,2013-01-13 06:25:00,
2013-01-13 00:28:00,0.1,-4.7,30.14,NW,321,5.0,7.0,80,0.00,,SKC,0.00,VWS V14.01,2013-01-13 06:28:00,
2013-01-13 00:30:00,0.1,-4.7,30.14,NW,309,4.0,7.0,80,0.00,,SKC,0.00,VWS V14.01,2013-01-13 06:30:00,
2013-01-13 00:33:00,0.1,-4.7,30.14,NW,319,4.0,5.0,80,0.00,,SKC,0.00,VWS V14.01,2013-01-13 06:33:00,
2013-01-13 00:35:00,-0.1,-4.8,30.14,WNW,292,4.0,7.0,80,0.00,,SKC,0.00,VWS V14.01,2013-01-13 06:35:00,
2013-01-13 00:38:00,-0.1,-4.8,30.14,NW,309,4.0,4.0,80,0.00,,SKC,0.00,VWS V14.01,2013-01-13 06:38:00,
2013-01-13 00:40:00,-0.2,-4.9,30.14,NW,319,4.0,7.0,80,0.00,,SKC,0.00,VWS V14.01,2013-01-13 06:40:00,
2013-01-13 00:43:00,-0.2,-4.9,30.14,NW,309,4.0,7.0,80,0.00,,SKC,0.00,VWS V14.01,2013-01-13 06:43:00,
2013-01-13 00:45:00,-0.2,-4.9,30.14,NW,307,3.0,7.0,80,0.00,,SKC,0.00,VWS V14.01,2013-01-13 06:45:00,
2013-01-13 00:48:00,-0.3,-5.0,30.14,WNW,300,3.0,4.0,80,0.00,,SKC,0.00,VWS V14.01,2013-01-13 06:48:00,
2013-01-13 00:50:00,-0.3,-5.0,30.14,NW,315,1.0,7.0,80,0.00,,SKC,0.00,VWS V14.01,2013-01-13 06:50:00,
2013-01-13 00:53:00,-0.3,-5.0,30.14,NW,317,3.0,4.0,80,0.00,,SKC,0.00,VWS V14.01,2013-01-13 06:53:00,
2013-01-13 00:55:00,-0.3,-5.0,30.13,NW,306,4.0,7.0,80,0.00,,SKC,0.00,VWS V14.01,2013-01-13 06:55:00,
2013-01-13 00:58:00,-0.4,-5.1,30.13,NW,322,5.0,6.0,80,0.00,,SKC,0.00,VWS V14.01,2013-01-13 06:58:00,
2013-01-13 01:00:00,-0.4,-5.1,30.14,NW,320,6.0,7.0,80,0.00,,SKC,0.00,VWS V14.01,2013-01-13 07:00:00,
2013-01-13 01:03:00,-0.4,-5.1,30.14,NW,322,5.0,7.0,80,0.00,,SKC,0.00,VWS V14.01,2013-01-13 07:03:00,
2013-01-13 01:05:00,-0.4,-5.1,30.14,WNW,302,7.0,7.0,80,0.00,,SKC,0.00,VWS V14.01,2013-01-13 07:05:00,
2013-01-13 01:08:00,-0.4,-5.1,30.14,NW,310,5.0,9.0,80,0.00,,SKC,0.00,VWS V14.01,2013-01-13 07:08:00,
2013-01-13 01:10:00,-0.4,-5.1,30.14,NW,310,2.0,9.0,80,0.00,,SKC,0.00,VWS V14.01,2013-01-13 07:10:00,
2013-01-13 01:13:00,-0.4,-5.1,30.14,NW,310,4.0,5.0,80,0.00,,SKC,0.00,VWS V14.01,2013-01-13 07:13:00,
2013-01-13 01:15:00,-0.5,-5.2,30.14,NW,319,6.0,6.0,80,0.00,,SKC,0.00,VWS V14.01,2013-01-13 07:15:00,
2013-01-13 01:18:00,-0.5,-5.2,30.14,NW,310,3.0,6.0,80,0.00,,SKC,0.00,VWS V14.01,2013-01-13 07:18:00,
2013-01-13 01:20:00,-0.5,-5.2,30.14,NW,309,4.0,6.0,80,0.00,,SKC,0.00,VWS V14.01,2013-01-13 07:20:00,
2013-01-13 01:23:00,-0.5,-5.2,30.13,NW,324,4.0,6.0,80,0.00,,SKC,0.00,VWS V14.01,2013-01-13 07:23:00,
2013-01-13 01:25:00,-0.5,-5.2,30.14,NW,318,3.0,7.0,80,0.00,,SKC,0.00,VWS V14.01,2013-01-13 07:25:00,
2013-01-13 01:28:00,-0.6,-5.3,30.14,NW,310,4.0,5.0,80,0.00,,SKC,0.00,VWS V14.01,2013-01-13 07:28:00,
2013-01-13 01:30:00,-0.6,-5.3,30.14,NW,311,4.0,7.0,80,0.00,,SKC,0.00,VWS V14.01,2013-01-13 07:30:00,
2013-01-13 01:33:00,-0.6,-5.3,30.13,NW,306,3.0,6.0,80,0.00,,SKC,0.00,VWS V14.01,2013-01-13 07:33:00,
2013-01-13 01:35:00,-0.6,-5.3,30.14,NW,311,4.0,7.0,80,0.00,,SKC,0.00,VWS V14.01,2013-01-13 07:35:00,
2013-01-13 01:38:00,-0.6,-5.3,30.14,NW,317,3.0,4.0,80,0.00,,SKC,0.00,VWS V14.01,2013-01-13 07:38:00,
2013-01-13 01:40:00,-0.7,-5.4,30.14,NW,309,1.0,6.0,80,0.00,,SKC,0.00,VWS V14.01,2013-01-13 07:40:00,
2013-01-13 01:43:00,-0.7,-5.4,30.14,NW,309,2.0,2.0,80,0.00,,SKC,0.00,VWS V14.01,2013-01-13 07:43:00,
2013-01-13 01:45:00,-0.8,-5.5,30.15,NW,310,3.0,3.0,80,0.00,,SKC,0.00,VWS V14.01,2013-01-13 07:45:00,
2013-01-13 01:48:00,-0.8,-5.5,30.15,NW,310,3.0,3.0,80,0.00,,SKC,0.00,VWS V14.01,2013-01-13 07:48:00,
2013-01-13 01:50:00,-0.8,-5.2,30.15,WNW,298,2.0,5.0,81,0.00,,SKC,0.00,VWS V14.01,2013-01-13 07:50:00,
2013-01-13 01:53:00,-0.8,-5.2,30.15,WNW,298,0.0,2.0,81,0.00,,SKC,0.00,VWS V14.01,2013-01-13 07:53:00,
2013-01-13 01:55:00,-0.9,-5.3,30.15,WNW,298,1.0,3.0,81,0.00,,SKC,0.00,VWS V14.01,2013-01-13 07:55:00,
2013-01-13 01:58:00,-0.9,-5.3,30.15,WNW,298,1.0,4.0,81,0.00,,SKC,0.00,VWS V14.01,2013-01-13 07:58:00,
2013-01-13 02:00:00,-1.0,-5.4,30.15,WNW,300,2.0,4.0,81,0.00,,SKC,0.00,VWS V14.01,2013-01-13 08:00:00,
2013-01-13 02:03:00,-1.0,-5.4,30.15,WNW,302,2.0,3.0,81,0.00,,SKC,0.00,VWS V14.01,2013-01-13 08:03:00,
2013-01-13 02:05:00,-1.0,-5.4,30.15,WNW,303,2.0,3.0,81,0.00,,SKC,0.00,VWS V14.01,2013-01-13 08:05:00,
2013-01-13 02:08:00,-1.1,-5.5,30.15,NW,304,2.0,2.0,81,0.00,,SKC,0.00,VWS V14.01,2013-01-13 08:08:00,
2013-01-13 02:10:00,-1.2,-5.6,30.15,NW,309,3.0,4.0,81,0.00,,SKC,0.00,VWS V14.01,2013-01-13 08:10:00,
2013-01-13 02:13:00,-1.1,-5.5,30.15,WNW,303,4.0,4.0,81,0.00,,SKC,0.00,VWS V14.01,2013-01-13 08:13:00,
2013-01-13 02:15:00,-1.1,-5.5,30.15,NW,320,3.0,5.0,81,0.00,,SKC,0.00,VWS V14.01,2013-01-13 08:15:00,
2013-01-13 02:18:00,-1.1,-5.5,30.15,NW,320,3.0,3.0,81,0.00,,SKC,0.00,VWS V14.01,2013-01-13 08:18:00,
2013-01-13 02:20:00,-1.1,-5.5,30.15,NW,308,3.0,6.0,81,0.00,,SKC,0.00,VWS V14.01,2013-01-13 08:20:00,
2013-01-13 02:23:00,-1.1,-5.5,30.15,NW,310,4.0,4.0,81,0.00,,SKC,0.00,VWS V14.01,2013-01-13 08:23:00,
2013-01-13 02:25:00,-1.0,-5.4,30.15,NW,315,2.0,5.0,81,0.00,,SKC,0.00,VWS V14.01,2013-01-13 08:25:00,
2013-01-13 02:28:00,-1.0,-5.4,30.15,NW,314,3.0,3.0,81,0.00,,SKC,0.00,VWS V14.01,2013-01-13 08:28:00,
2013-01-13 02:30:00,-1.0,-5.4,30.14,NNW,331,2.0,6.0,81,0.00,,SKC,0.00,VWS V14.01,2013-01-13 08:30:00,
2013-01-13 02:33:00,-1.1,-5.5,30.14,NNW,331,5.0,5.0,81,0.00,,SKC,0.00,VWS V14.01,2013-01-13 08:33:00,
2013-01-13 02:35:00,-1.1,-5.5,30.14,NW,310,3.0,7.0,81,0.00,,SKC,0.00,VWS V14.01,2013-01-13 08:35:00,
2013-01-13 02:38:00,-1.0,-5.4,30.14,NW,314,2.0,3.0,81,0.00,,SKC,0.00,VWS V14.01,2013-01-13 08:38:00,
2013-01-13 02:40:00,-1.0,-5.4,30.14,NW,311,4.0,7.0,81,0.00,,SKC,0.00,VWS V14.01,2013-01-13 08:40:00,
2013-01-13 02:43:00,-1.0,-5.4,30.14,NW,314,6.0,6.0,81,0.00,,SKC,0.00,VWS V14.01,2013-01-13 08:43:00,
2013-01-13 02:45:00,-1.0,-5.4,30.14,NNW,331,6.0,7.0,81,0.00,,SKC,0.00,VWS V14.01,2013-01-13 08:45:00,
2013-01-13 02:48:00,-1.0,-5.4,30.14,NW,321,5.0,6.0,81,0.00,,SKC,0.00,VWS V14.01,2013-01-13 08:48:00,
2013-01-13 02:50:00,-1.1,-5.5,30.14,WNW,298,3.0,6.0,81,0.00,,SKC,0.00,VWS V14.01,2013-01-13 08:50:00,
2013-01-13 02:53:00,-1.1,-5.5,30.14,NW,313,5.0,5.0,81,0.00,,SKC,0.00,VWS V14.01,2013-01-13 08:53:00,
2013-01-13 02:55:00,-1.1,-5.5,30.13,NW,313,7.0,9.0,81,0.00,,SKC,0.00,VWS V14.01,2013-01-13 08:55:00,
2013-01-13 02:58:00,-1.1,-5.5,30.13,NNW,331,6.0,7.0,81,0.00,,SKC,0.00,VWS V14.01,2013-01-13 08:58:00,
2013-01-13 03:00:00,-1.2,-5.6,30.13,NW,314,4.0,9.0,81,0.00,,SKC,0.00,VWS V14.01,2013-01-13 09:00:00,
2013-01-13 03:03:00,-1.2,-5.6,30.13,NW,312,6.0,6.0,81,0.00,,SKC,0.00,VWS V14.01,2013-01-13 09:03:00,
2013-01-13 03:05:00,-1.2,-5.6,30.14,NW,304,5.0,10.0,81,0.00,,SKC,0.00,VWS V14.01,2013-01-13 09:05:00,
2013-01-13 03:08:00,-1.2,-5.6,30.14,NW,315,6.0,7.0,81,0.00,,SKC,0.00,VWS V14.01,2013-01-13 09:08:00,
2013-01-13 03:10:00,-1.2,-5.6,30.14,WNW,301,5.0,9.0,81,0.00,,SKC,0.00,VWS V14.01,2013-01-13 09:10:00,
2013-01-13 03:13:00,-1.2,-5.6,30.14,NW,321,4.0,5.0,81,0.00,,SKC,0.00,VWS V14.01,2013-01-13 09:13:00,
2013-01-13 03:15:00,-1.3,-6.0,30.14,NW,318,6.0,11.0,80,0.00,,SKC,0.00,VWS V14.01,2013-01-13 09:15:00,
2013-01-13 03:18:00,-1.3,-6.0,30.14,NW,320,6.0,8.0,80,0.00,,SKC,0.00,VWS V14.01,2013-01-13 09:18:00,
2013-01-13 03:20:00,-1.3,-6.0,30.14,NW,317,4.0,11.0,80,0.00,,SKC,0.00,VWS V14.01,2013-01-13 09:20:00,
2013-01-13 03:23:00,-1.3,-6.0,30.14,NW,313,6.0,6.0,80,0.00,,SKC,0.00,VWS V14.01,2013-01-13 09:23:00,
2013-01-13 03:25:00,-1.3,-6.0,30.14,NW,306,5.0,10.0,80,0.00,,SKC,0.00,VWS V14.01,2013-01-13 09:25:00,
2013-01-13 03:28:00,-1.4,-6.1,30.14,NW,309,7.0,7.0,80,0.00,,SKC,0.00,VWS V14.01,2013-01-13 09:28:00,
2013-01-13 03:30:00,-1.4,-6.1,30.14,NW,317,5.0,9.0,80,0.00,,SKC,0.00,VWS V14.01,2013-01-13 09:30:00,
2013-01-13 03:33:00,-1.4,-6.1,30.14,NW,318,5.0,6.0,80,0.00,,SKC,0.00,VWS V14.01,2013-01-13 09:33:00,
2013-01-13 03:35:00,-1.5,-6.2,30.14,NW,315,5.0,10.0,80,0.00,,SKC,0.00,VWS V14.01,2013-01-13 09:35:00,
2013-01-13 03:38:00,-1.5,-6.2,30.14,NW,325,5.0,9.0,80,0.00,,SKC,0.00,VWS V14.01,2013-01-13 09:38:00,
2013-01-13 03:40:00,-1.6,-6.2,30.14,NW,306,4.0,9.0,80,0.00,,SKC,0.00,VWS V14.01,2013-01-13 09:40:00,
2013-01-13 03:43:00,-1.6,-6.2,30.14,NW,318,4.0,9.0,80,0.00,,SKC,0.00,VWS V14.01,2013-01-13 09:43:00,
2013-01-13 03:45:00,-1.6,-6.2,30.14,NW,315,7.0,9.0,80,0.00,,SKC,0.00,VWS V14.01,2013-01-13 09:45:00,
2013-01-13 03:48:00,-1.6,-6.2,30.14,NW,321,8.0,9.0,80,0.00,,SKC,0.00,VWS V14.01,2013-01-13 09:48:00,
2013-01-13 03:50:00,-1.7,-6.3,30.13,NW,315,4.0,9.0,80,0.00,,SKC,0.00,VWS V14.01,2013-01-13 09:50:00,
2013-01-13 03:53:00,-1.7,-6.3,30.14,NW,309,3.0,5.0,80,0.00,,SKC,0.00,VWS V14.01,2013-01-13 09:53:00,
2013-01-13 03:55:00,-1.8,-6.4,30.14,NW,306,4.0,7.0,80,0.00,,SKC,0.00,VWS V14.01,2013-01-13 09:55:00,
2013-01-13 03:58:00,-1.8,-6.4,30.14,NW,314,6.0,7.0,80,0.00,,SKC,0.00,VWS V14.01,2013-01-13 09:58:00,
2013-01-13 04:00:00,-1.8,-6.4,30.13,NW,326,7.0,9.0,80,0.00,,SKC,0.00,VWS V14.01,2013-01-13 10:00:00,
2013-01-13 04:03:00,-1.8,-6.4,30.13,NW,325,6.0,8.0,80,0.00,,SKC,0.00,VWS V14.01,2013-01-13 10:03:00,
2013-01-13 04:05:00,-1.8,-6.4,30.14,NW,324,6.0,11.0,80,0.00,,SKC,0.00,VWS V14.01,2013-01-13 10:05:00,
2013-01-13 04:08:00,-1.8,-6.4,30.14,NW,314,6.0,9.0,80,0.00,,SKC,0.00,VWS V14.01,2013-01-13 10:08:00,
2013-01-13 04:10:00,-1.8,-6.4,30.14,NW,325,3.0,9.0,80,0.00,,SKC,0.00,VWS V14.01,2013-01-13 10:10:00,
2013-01-13 04:12:00,-1.9,-6.6,30.14,NW,310,7.0,7.0,80,0.00,,SKC,0.00,VWS V14.01,2013-01-13 10:12:00,
2013-01-13 04:15:00,-1.9,-6.6,30.14,NW,313,5.0,8.0,80,0.00,,SKC,0.00,VWS V14.01,2013-01-13 10:15:00,
2013-01-13 04:18:00,-1.9,-6.6,30.14,NW,309,3.0,6.0,80,0.00,,SKC,0.00,VWS V14.01,2013-01-13 10:18:00,
2013-01-13 04:20:00,-2.0,-6.6,30.14,NW,318,6.0,9.0,80,0.00,,SKC,0.00,VWS V14.01,2013-01-13 10:20:00,
2013-01-13 04:22:00,-2.0,-6.6,30.14,NW,317,5.0,6.0,80,0.00,,SKC,0.00,VWS V14.01,2013-01-13 10:22:00,
2013-01-13 04:25:00,-2.1,-6.7,30.14,NW,312,9.0,10.0,80,0.00,,SKC,0.00,VWS V14.01,2013-01-13 10:25:00,
2013-01-13 04:27:00,-2.1,-6.7,30.14,NW,309,7.0,9.0,80,0.00,,SKC,0.00,VWS V14.01,2013-01-13 10:27:00,
2013-01-13 04:30:00,-2.1,-7.0,30.15,NW,311,4.0,10.0,79,0.00,,SKC,0.00,VWS V14.01,2013-01-13 10:30:00,
2013-01-13 04:32:00,-2.1,-7.0,30.15,NW,309,7.0,7.0,79,0.00,,SKC,0.00,VWS V14.01,2013-01-13 10:32:00,
2013-01-13 04:35:00,-2.2,-7.1,30.15,West,275,2.0,7.0,79,0.00,,SKC,0.00,VWS V14.01,2013-01-13 10:35:00,
2013-01-13 04:37:00,-2.2,-7.1,30.15,NW,304,5.0,6.0,79,0.00,,SKC,0.00,VWS V14.01,2013-01-13 10:37:00,
2013-01-13 04:40:00,-2.3,-7.2,30.16,WNW,297,3.0,7.0,79,0.00,,SKC,0.00,VWS V14.01,2013-01-13 10:40:00,
2013-01-13 04:42:00,-2.3,-7.2,30.16,WNW,295,3.0,5.0,79,0.00,,SKC,0.00,VWS V14.01,2013-01-13 10:42:00,
2013-01-13 04:45:00,-2.4,-7.3,30.15,WNW,291,6.0,6.0,79,0.00,,SKC,0.00,VWS V14.01,2013-01-13 10:45:00,
2013-01-13 04:47:00,-2.4,-7.3,30.15,NW,309,2.0,6.0,79,0.00,,SKC,0.00,VWS V14.01,2013-01-13 10:47:00,
2013-01-13 04:50:00,-2.4,-7.3,30.16,WNW,294,5.0,8.0,79,0.00,,SKC,0.00,VWS V14.01,2013-01-13 10:50:00,
2013-01-13 04:52:00,-2.4,-7.3,30.16,WNW,302,2.0,5.0,79,0.00,,SKC,0.00,VWS V14.01,2013-01-13 10:52:00,
2013-01-13 04:55:00,-2.5,-7.4,30.16,NW,309,5.0,9.0,79,0.00,,SKC,0.00,VWS V14.01,2013-01-13 10:55:00,
2013-01-13 04:57:00,-2.5,-7.4,30.16,WNW,286,3.0,9.0,79,0.00,,SKC,0.00,VWS V14.01,2013-01-13 10:57:00,
2013-01-13 05:00:00,-2.5,-7.4,30.16,NW,304,2.0,9.0,79,0.00,,SKC,0.00,VWS V14.01,2013-01-13 11:00:00,
2013-01-13 05:02:00,-2.5,-7.4,30.16,NW,319,6.0,6.0,79,0.00,,SKC,0.00,VWS V14.01,2013-01-13 11:02:00,
2013-01-13 05:05:00,-2.5,-7.4,30.16,NW,323,7.0,12.0,79,0.00,,SKC,0.00,VWS V14.01,2013-01-13 11:05:00,
2013-01-13 05:07:00,-2.5,-7.4,30.16,NW,317,7.0,12.0,79,0.00,,SKC,0.00,VWS V14.01,2013-01-13 11:07:00,
2013-01-13 05:10:00,-2.5,-7.4,30.15,NW,309,4.0,12.0,79,0.00,,SKC,0.00,VWS V14.01,2013-01-13 11:10:00,
2013-01-13 05:12:00,-2.5,-7.4,30.15,WNW,302,5.0,6.0,79,0.00,,SKC,0.00,VWS V14.01,2013-01-13 11:12:00,
2013-01-13 05:15:00,-2.6,-7.5,30.15,WNW,299,5.0,6.0,79,0.00,,SKC,0.00,VWS V14.01,2013-01-13 11:15:00,
2013-01-13 05:17:00,-2.6,-7.5,30.15,NW,320,4.0,5.0,79,0.00,,SKC,0.00,VWS V14.01,2013-01-13 11:17:00,
2013-01-13 05:20:00,-2.7,-7.6,30.15,WNW,300,4.0,9.0,79,0.00,,SKC,0.00,VWS V14.01,2013-01-13 11:20:00,
2013-01-13 05:22:00,-2.7,-7.6,30.15,WNW,290,4.0,5.0,79,0.00,,SKC,0.00,VWS V14.01,2013-01-13 11:22:00,
2013-01-13 05:25:00,-2.8,-7.7,30.16,West,265,6.0,9.0,79,0.00,,SKC,0.00,VWS V14.01,2013-01-13 11:25:00,
2013-01-13 05:27:00,-2.8,-7.7,30.16,NW,317,4.0,7.0,79,0.00,,SKC,0.00,VWS V14.01,2013-01-13 11:27:00,
2013-01-13 05:30:00,-2.9,-7.8,30.16,NW,321,4.0,7.0,79,0.00,,SKC,0.00,VWS V14.01,2013-01-13 11:30:00,
2013-01-13 05:32:00,-2.9,-7.8,30.17,WNW,299,2.0,4.0,79,0.00,,SKC,0.00,VWS V14.01,2013-01-13 11:32:00,
2013-01-13 05:35:00,-2.9,-7.5,30.17,WNW,303,3.0,5.0,80,0.00,,SKC,0.00,VWS V14.01,2013-01-13 11:35:00,
2013-01-13 05:37:00,-2.9,-7.5,30.17,WNW,290,2.0,4.0,80,0.00,,SKC,0.00,VWS V14.01,2013-01-13 11:37:00,
2013-01-13 05:40:00,-3.0,-7.9,30.17,NW,306,4.0,6.0,79,0.00,,SKC,0.00,VWS V14.01,2013-01-13 11:40:00,
2013-01-13 05:42:00,-3.0,-7.9,30.17,NW,313,2.0,5.0,79,0.00,,SKC,0.00,VWS V14.01,2013-01-13 11:42:00,
2013-01-13 05:45:00,-3.0,-7.9,30.18,WNW,283,7.0,10.0,79,0.00,,SKC,0.00,VWS V14.01,2013-01-13 11:45:00,
2013-01-13 05:47:00,-3.0,-7.9,30.18,NW,313,4.0,7.0,79,0.00,,SKC,0.00,VWS V14.01,2013-01-13 11:47:00,
2013-01-13 05:50:00,-3.0,-7.9,30.18,WNW,302,5.0,8.0,79,0.00,,SKC,0.00,VWS V14.01,2013-01-13 11:50:00,
2013-01-13 05:52:00,-3.0,-7.9,30.18,WNW,302,4.0,6.0,79,0.00,,SKC,0.00,VWS V14.01,2013-01-13 11:52:00,
2013-01-13 05:55:00,-3.0,-7.9,30.18,NW,309,4.0,7.0,79,0.00,,SKC,0.00,VWS V14.01,2013-01-13 11:55:00,
2013-01-13 05:57:00,-3.0,-7.9,30.18,NW,318,4.0,5.0,79,0.00,,SKC,0.00,VWS V14.01,2013-01-13 11:57:00,
2013-01-13 06:00:00,-3.0,-7.9,30.17,NW,319,4.0,7.0,79,0.00,,SKC,0.00,VWS V14.01,2013-01-13 12:00:00,
2013-01-13 06:02:00,-3.0,-7.9,30.17,NNW,343,6.0,6.0,79,0.00,,SKC,0.00,VWS V14.01,2013-01-13 12:02:00,
2013-01-13 06:05:00,-3.0,-7.6,30.17,NW,319,10.0,10.0,80,0.00,,SKC,0.00,VWS V14.01,2013-01-13 12:05:00,
2013-01-13 06:07:00,-3.0,-7.6,30.17,NNW,338,9.0,10.0,80,0.00,,SKC,0.00,VWS V14.01,2013-01-13 12:07:00,
2013-01-13 06:10:00,-2.9,-7.5,30.17,NW,310,4.0,10.0,80,0.00,,SKC,0.00,VWS V14.01,2013-01-13 12:10:00,
2013-01-13 06:12:00,-2.9,-7.5,30.17,NW,309,7.0,7.0,80,0.00,,SKC,0.00,VWS V14.01,2013-01-13 12:12:00,
2013-01-13 06:15:00,-2.8,-7.4,30.17,NW,315,4.0,7.0,80,0.00,,SKC,0.00,VWS V14.01,2013-01-13 12:15:00,
2013-01-13 06:17:00,-2.8,-7.4,30.17,NW,321,7.0,7.0,80,0.00,,SKC,0.00,VWS V14.01,2013-01-13 12:17:00,
2013-01-13 06:20:00,-2.7,-7.3,30.17,NW,325,3.0,11.0,80,0.00,,SKC,0.00,VWS V14.01,2013-01-13 12:20:00,
2013-01-13 06:22:00,-2.7,-7.6,30.17,NW,322,5.0,5.0,79,0.00,,SKC,0.00,VWS V14.01,2013-01-13 12:22:00,
2013-01-13 06:25:00,-2.7,-7.3,30.18,NNW,338,10.0,10.0,80,0.00,,SKC,0.00,VWS V14.01,2013-01-13 12:25:00,
2013-01-13 06:27:00,-2.7,-7.6,30.18,NW,315,11.0,11.0,79,0.00,,SKC,0.00,VWS V14.01,2013-01-13 12:27:00,
2013-01-13 06:30:00,-2.8,-7.7,30.17,NW,317,7.0,11.0,79,0.00,,SKC,0.00,VWS V14.01,2013-01-13 12:30:00,
2013-01-13 06:32:00,-2.8,-7.7,30.17,NNW,327,6.0,8.0,79,0.00,,SKC,0.00,VWS V14.01,2013-01-13 12:32:00,
2013-01-13 06:35:00,-2.9,-7.8,30.18,NW,321,6.0,10.0,79,0.00,,SKC,0.00,VWS V14.01,2013-01-13 12:35:00,
2013-01-13 06:37:00,-2.9,-7.8,30.18,NW,319,7.0,10.0,79,0.00,,SKC,0.00,VWS V14.01,2013-01-13 12:37:00,
2013-01-13 06:40:00,-3.0,-7.9,30.19,WNW,299,6.0,11.0,79,0.00,,SKC,0.00,VWS V14.01,2013-01-13 12:40:00,
2013-01-13 06:42:00,-2.9,-7.8,30.19,NW,321,7.0,9.0,79,0.00,,SKC,0.00,VWS V14.01,2013-01-13 12:42:00,
2013-01-13 06:45:00,-3.0,-7.9,30.19,NNW,342,9.0,9.0,79,0.00,,SKC,0.00,VWS V14.01,2013-01-13 12:45:00,
2013-01-13 06:47:00,-3.0,-7.9,30.19,NW,305,6.0,9.0,79,0.00,,SKC,0.00,VWS V14.01,2013-01-13 12:47:00,
2013-01-13 06:50:00,-3.0,-7.9,30.19,NW,310,7.0,11.0,79,0.00,,SKC,0.00,VWS V14.01,2013-01-13 12:50:00,
2013-01-13 06:52:00,-3.1,-8.0,30.19,NW,321,3.0,7.0,79,0.00,,SKC,0.00,VWS V14.01,2013-01-13 12:52:00,
2013-01-13 06:55:00,-3.1,-8.0,30.19,NW,321,10.0,12.0,79,0.00,,SKC,0.00,VWS V14.01,2013-01-13 12:55:00,
2013-01-13 06:57:00,-3.1,-8.0,30.19,NW,324,6.0,10.0,79,0.00,,SKC,0.00,VWS V14.01,2013-01-13 12:57:00,
2013-01-13 07:00:00,-3.2,-8.1,30.19,NW,316,6.0,11.0,79,0.00,,SKC,0.00,VWS V14.01,2013-01-13 13:00:00,
2013-01-13 07:02:00,-3.2,-8.1,30.19,NW,313,5.0,6.0,79,0.00,,SKC,0.00,VWS V14.01,2013-01-13 13:02:00,
2013-01-13 07:05:00,-3.2,-8.1,30.20,NW,315,5.0,9.0,79,0.00,,SKC,0.00,VWS V14.01,2013-01-13 13:05:00,
2013-01-13 07:07:00,-3.2,-8.1,30.20,NW,313,7.0,7.0,79,0.00,,SKC,0.00,VWS V14.01,2013-01-13 13:07:00,
2013-01-13 07:10:00,-3.3,-8.2,30.20,NW,314,4.0,7.0,79,0.00,,SKC,0.00,VWS V14.01,2013-01-13 13:10:00,
2013-01-13 07:12:00,-3.3,-8.2,30.20,NNW,345,5.0,6.0,79,0.00,,SKC,0.00,VWS V14.01,2013-01-13 13:12:00,
2013-01-13 07:15:00,-3.3,-8.2,30.20,NNW,333,3.0,8.0,79,0.00,,SKC,0.00,VWS V14.01,2013-01-13 13:15:00,
2013-01-13 07:17:00,-3.3,-8.2,30.20,West,281,4.0,7.0,79,0.00,,SKC,0.00,VWS V14.01,2013-01-13 13:17:00,
2013-01-13 07:20:00,-3.2,-8.1,30.20,NW,315,4.0,7.0,79,0.00,,SKC,0.00,VWS V14.01,2013-01-13 13:20:00,
2013-01-13 07:22:00,-3.2,-8.1,30.20,NW,304,5.0,5.0,79,0.00,,SKC,0.00,VWS V14.01,2013-01-13 13:22:00,
2013-01-13 07:25:00,-3.1,-8.0,30.20,NW,311,4.0,8.0,79,0.00,,SKC,0.00,VWS V14.01,2013-01-13 13:25:00,
2013-01-13 07:27:00,-3.1,-7.7,30.20,WNW,296,7.0,7.0,80,0.00,,SKC,0.00,VWS V14.01,2013-01-13 13:27:00,
2013-01-13 07:30:00,-3.1,-8.0,30.20,NW,320,5.0,8.0,79,0.00,,SKC,0.00,VWS V14.01,2013-01-13 13:30:00,
2013-01-13 07:32:00,-3.1,-8.0,30.21,NNW,327,6.0,6.0,79,0.00,,SKC,0.00,VWS V14.01,2013-01-13 13:32:00,
2013-01-13 07:35:00,-3.0,-7.6,30.21,NNW,328,5.0,9.0,80,0.00,,SKC,0.00,VWS V14.01,2013-01-13 13:35:00,
2013-01-13 07:37:00,-2.9,-7.5,30.21,NNW,331,5.0,6.0,80,0.00,,SKC,0.00,VWS V14.01,2013-01-13 13:37:00,
2013-01-13 07:40:00,-2.8,-7.4,30.21,NNW,329,6.0,10.0,80,0.00,,SKC,0.00,VWS V14.01,2013-01-13 13:40:00,
2013-01-13 07:42:00,-2.8,-7.4,30.21,NW,315,5.0,6.0,80,0.00,,SKC,0.00,VWS V14.01,2013-01-13 13:42:00,
2013-01-13 07:45:00,-2.7,-7.3,30.21,NW,317,3.0,7.0,80,0.00,,SKC,0.00,VWS V14.01,2013-01-13 13:45:00,
2013-01-13 07:47:00,-2.7,-7.3,30.21,NW,319,5.0,7.0,80,0.00,,SKC,0.00,VWS V14.01,2013-01-13 13:47:00,
2013-01-13 07:50:00,-2.6,-7.5,30.21,NW,321,4.0,8.0,79,0.00,,SKC,0.00,VWS V14.01,2013-01-13 13:50:00,
2013-01-13 07:52:00,-2.6,-7.5,30.21,NW,312,3.0,6.0,79,0.00,,SKC,0.00,VWS V14.01,2013-01-13 13:52:00,
2013-01-13 07:55:00,-2.5,-7.1,30.21,NNW,331,5.0,7.0,80,0.00,,SKC,0.00,VWS V14.01,2013-01-13 13:55:00,
2013-01-13 07:57:00,-2.5,-7.1,30.21,NNW,331,4.0,5.0,80,0.00,,SKC,0.00,VWS V14.01,2013-01-13 13:57:00,
2013-01-13 08:00:00,-2.4,-7.0,30.21,NW,309,7.0,7.0,80,0.00,,SKC,0.00,VWS V14.01,2013-01-13 14:00:00,
2013-01-13 08:02:00,-2.4,-7.0,30.21,NW,318,6.0,7.0,80,0.00,,SKC,0.00,VWS V14.01,2013-01-13 14:02:00,
2013-01-13 08:05:00,-2.4,-7.0,30.22,NW,315,4.0,7.0,80,0.00,,SKC,0.00,VWS V14.01,2013-01-13 14:05:00,
2013-01-13 08:07:00,-2.4,-7.0,30.22,NW,312,3.0,5.0,80,0.00,,SKC,0.00,VWS V14.01,2013-01-13 14:07:00,
2013-01-13 08:10:00,-2.3,-7.2,30.22,NNW,333,4.0,9.0,79,0.00,,SKC,0.00,VWS V14.01,2013-01-13 14:10:00,
2013-01-13 08:12:00,-2.3,-7.2,30.22,NW,319,4.0,6.0,79,0.00,,SKC,0.00,VWS V14.01,2013-01-13 14:12:00,
2013-01-13 08:15:00,-2.3,-7.2,30.22,NNW,332,6.0,7.0,79,0.00,,SKC,0.00,VWS V14.01,2013-01-13 14:15:00,
2013-01-13 08:17:00,-2.3,-7.2,30.22,NW,304,5.0,6.0,79,0.00,,SKC,0.00,VWS V14.01,2013-01-13 14:17:00,
2013-01-13 08:20:00,-2.2,-7.1,30.22,NNW,331,5.0,8.0,79,0.00,,SKC,0.00,VWS V14.01,2013-01-13 14:20:00,
2013-01-13 08:22:00,-2.2,-7.1,30.22,NW,322,6.0,6.0,79,0.00,,SKC,0.00,VWS V14.01,2013-01-13 14:22:00,
2013-01-13 08:25:00,-2.1,-7.0,30.23,NW,326,3.0,6.0,79,0.00,,SKC,0.00,VWS V14.01,2013-01-13 14:25:00,
2013-01-13 08:27:00,-2.1,-7.0,30.23,NNW,336,5.0,6.0,79,0.00,,SKC,0.00,VWS V14.01,2013-01-13 14:27:00,
2013-01-13 08:30:00,-1.9,-6.8,30.23,NW,317,4.0,6.0,79,0.00,,SKC,0.00,VWS V14.01,2013-01-13 14:30:00,
2013-01-13 08:32:00,-1.9,-6.8,30.23,NW,325,5.0,7.0,79,0.00,,SKC,0.00,VWS V14.01,2013-01-13 14:32:00,
2013-01-13 08:35:00,-1.8,-6.7,30.24,NW,308,5.0,8.0,79,0.00,,SKC,0.00,VWS V14.01,2013-01-13 14:35:00,
2013-01-13 08:37:00,-1.8,-6.7,30.24,NW,316,5.0,5.0,79,0.00,,SKC,0.00,VWS V14.01,2013-01-13 14:37:00,
2013-01-13 08:40:00,-1.7,-6.3,30.24,NW,325,5.0,8.0,80,0.00,,SKC,0.00,VWS V14.01,2013-01-13 14:40:00,
2013-01-13 08:42:00,-1.7,-6.3,30.24,NW,313,4.0,6.0,80,0.00,,SKC,0.00,VWS V14.01,2013-01-13 14:42:00,
2013-01-13 08:45:00,-1.6,-6.2,30.24,NW,315,3.0,6.0,80,0.00,,SKC,0.00,VWS V14.01,2013-01-13 14:45:00,
2013-01-13 08:47:00,-1.7,-6.3,30.24,NW,310,3.0,4.0,80,0.00,,SKC,0.00,VWS V14.01,2013-01-13 14:47:00,
2013-01-13 08:50:00,-1.6,-6.2,30.24,WNW,300,3.0,7.0,80,0.00,,SKC,0.00,VWS V14.01,2013-01-13 14:50:00,
2013-01-13 08:52:00,-1.6,-6.2,30.24,WNW,298,6.0,6.0,80,0.00,,SKC,0.00,VWS V14.01,2013-01-13 14:52:00,
2013-01-13 08:55:00,-1.6,-6.2,30.25,NW,307,5.0,7.0,80,0.00,,SKC,0.00,VWS V14.01,2013-01-13 14:55:00,
2013-01-13 08:57:00,-1.6,-6.2,30.25,NW,326,5.0,6.0,80,0.00,,SKC,0.00,VWS V14.01,2013-01-13 14:57:00,
2013-01-13 09:00:00,-1.5,-6.2,30.24,NW,325,5.0,7.0,80,0.00,,SKC,0.00,VWS V14.01,2013-01-13 15:00:00,
2013-01-13 09:02:00,-1.5,-6.2,30.25,NW,321,4.0,5.0,80,0.00,,SKC,0.00,VWS V14.01,2013-01-13 15:02:00,
2013-01-13 09:05:00,-1.3,-6.0,30.24,NW,325,6.0,10.0,80,0.00,,SKC,0.00,VWS V14.01,2013-01-13 15:05:00,
2013-01-13 09:07:00,-1.3,-6.0,30.24,NW,319,6.0,10.0,80,0.00,,SKC,0.00,VWS V14.01,2013-01-13 15:07:00,
2013-01-13 09:29:00,-1.0,-5.4,30.24,NNW,330,6.0,6.0,81,0.00,,SKC,0.00,VWS V14.01,2013-01-13 15:29:00,
2013-01-13 09:34:00,-0.8,-5.2,30.25,NW,315,6.0,8.0,81,0.00,,SKC,0.00,VWS V14.01,2013-01-13 15:34:00,
2013-01-13 09:39:00,-0.9,-5.3,30.25,NW,310,3.0,7.0,81,0.00,,SKC,0.00,VWS V14.01,2013-01-13 15:39:00,
2013-01-13 09:44:00,-0.8,-5.2,30.25,NW,325,3.0,7.0,81,0.00,,SKC,0.00,VWS V14.01,2013-01-13 15:44:00,
2013-01-13 09:49:00,-0.8,-5.5,30.24,WNW,303,2.0,7.0,80,0.00,,SKC,0.00,VWS V14.01,2013-01-13 15:49:00,
2013-01-13 09:54:00,-0.7,-5.4,30.24,NNW,336,5.0,7.0,80,0.00,,SKC,0.00,VWS V14.01,2013-01-13 15:54:00,
2013-01-13 09:59:00,-0.8,-5.5,30.25,NW,311,6.0,6.0,80,0.00,,SKC,0.00,VWS V14.01,2013-01-13 15:59:00,
2013-01-13 10:04:00,-0.9,-5.6,30.25,NW,324,4.0,7.0,80,0.00,,SKC,0.00,VWS V14.01,2013-01-13 16:04:00,
2013-01-13 10:09:00,-0.9,-5.6,30.25,WNW,288,3.0,7.0,80,0.00,,SKC,0.00,VWS V14.01,2013-01-13 16:09:00,
2013-01-13 10:14:00,-0.9,-5.6,30.25,NNW,329,5.0,9.0,80,0.00,,SKC,0.00,VWS V14.01,2013-01-13 16:14:00,
2013-01-13 10:19:00,-0.7,-5.4,30.25,NNW,331,3.0,5.0,80,0.00,,SKC,0.00,VWS V14.01,2013-01-13 16:19:00,
2013-01-13 10:24:00,-0.5,-5.2,30.25,NNW,330,6.0,7.0,80,0.00,,SKC,0.00,VWS V14.01,2013-01-13 16:24:00,
2013-01-13 10:29:00,-0.5,-5.4,30.24,NNW,337,6.0,8.0,79,0.00,,SKC,0.00,VWS V14.01,2013-01-13 16:29:00,
2013-01-13 10:34:00,-0.2,-4.9,30.24,NNW,344,5.0,7.0,80,0.00,,SKC,0.00,VWS V14.01,2013-01-13 16:34:00,
2013-01-13 10:39:00,0.2,-4.5,30.24,NNW,331,3.0,7.0,80,0.00,,SKC,0.00,VWS V14.01,2013-01-13 16:39:00,
2013-01-13 10:44:00,0.6,-4.4,30.24,NW,325,6.0,8.0,79,0.00,,SKC,0.00,VWS V14.01,2013-01-13 16:44:00,
2013-01-13 10:49:00,0.7,-4.3,30.24,WNW,303,7.0,7.0,79,0.00,,SKC,0.00,VWS V14.01,2013-01-13 16:49:00,
2013-01-13 10:54:00,0.8,-4.2,30.23,NW,309,5.0,5.0,79,0.00,,SKC,0.00,VWS V14.01,2013-01-13 16:54:00,
2013-01-13 10:59:00,0.8,-4.2,30.23,NW,324,6.0,7.0,79,0.00,,SKC,0.00,VWS V14.01,2013-01-13 16:59:00,
2013-01-13 11:04:00,1.1,-3.9,30.22,WNW,296,7.0,10.0,79,0.00,,SKC,0.00,VWS V14.01,2013-01-13 17:04:00,
2013-01-13 11:09:00,1.7,-3.0,30.21,NW,317,6.0,10.0,80,0.00,,SKC,0.00,VWS V14.01,2013-01-13 17:09:00,
2013-01-13 11:14:00,1.9,-3.1,30.21,NW,314,7.0,11.0,79,0.00,,SKC,0.00,VWS V14.01,2013-01-13 17:14:00,
2013-01-13 11:19:00,2.2,-2.8,30.20,NNW,338,10.0,12.0,79,0.00,,SKC,0.00,VWS V14.01,2013-01-13 17:19:00,
2013-01-13 11:24:00,2.5,-2.5,30.20,NNW,333,4.0,10.0,79,0.00,,SKC,0.00,VWS V14.01,2013-01-13 17:24:00,
2013-01-13 11:29:00,2.3,-3.0,30.20,NW,309,5.0,9.0,78,0.00,,SKC,0.00,VWS V14.01,2013-01-13 17:29:00,
2013-01-13 11:34:00,1.9,-3.4,30.19,NNW,334,9.0,10.0,78,0.00,,SKC,0.00,VWS V14.01,2013-01-13 17:34:00,
2013-01-13 11:39:00,2.2,-2.8,30.19,NNW,342,10.0,10.0,79,0.00,,SKC,0.00,VWS V14.01,2013-01-13 17:39:00,
2013-01-13 11:44:00,2.6,-2.4,30.19,NW,325,6.0,11.0,79,0.00,,SKC,0.00,VWS V14.01,2013-01-13 17:44:00,
2013-01-13 11:49:00,2.8,-2.5,30.18,NNW,332,5.0,10.0,78,0.00,,SKC,0.00,VWS V14.01,2013-01-13 17:49:00,
2013-01-13 11:54:00,3.2,-2.1,30.18,WNW,294,4.0,7.0,78,0.00,,SKC,0.00,VWS V14.01,2013-01-13 17:54:00,
2013-01-13 11:59:00,3.0,-2.3,30.18,WNW,300,6.0,9.0,78,0.00,,SKC,0.00,VWS V14.01,2013-01-13 17:59:00,
2013-01-13 12:04:00,2.8,-2.8,30.18,WNW,284,4.0,10.0,77,0.00,,SKC,0.00,VWS V14.01,2013-01-13 18:04:00,
2013-01-13 12:09:00,2.8,-2.8,30.17,NW,309,6.0,7.0,77,0.00,,SKC,0.00,VWS V14.01,2013-01-13 18:09:00,
2013-01-13 12:14:00,2.8,-2.5,30.17,NNW,334,4.0,6.0,78,0.00,,SKC,0.00,VWS V14.01,2013-01-13 18:14:00,
2013-01-13 12:19:00,2.8,-2.5,30.17,WNW,288,5.0,8.0,78,0.00,,SKC,0.00,VWS V14.01,2013-01-13 18:19:00,
2013-01-13 12:24:00,2.8,-2.2,30.17,West,273,7.0,8.0,79,0.00,,SKC,0.00,VWS V14.01,2013-01-13 18:24:00,
2013-01-13 12:29:00,3.0,-2.3,30.17,NNW,332,10.0,10.0,78,0.00,,SKC,0.00,VWS V14.01,2013-01-13 18:29:00,
2013-01-13 12:34:00,3.5,-1.5,30.17,WNW,294,7.0,7.0,79,0.00,,SKC,0.00,VWS V14.01,2013-01-13 18:34:00,
2013-01-13 12:39:00,3.3,-2.0,30.18,NW,320,10.0,10.0,78,0.00,,SKC,0.00,VWS V14.01,2013-01-13 18:39:00,
2013-01-13 12:44:00,3.2,-2.4,30.18,WNW,294,9.0,11.0,77,0.00,,SKC,0.00,VWS V14.01,2013-01-13 18:44:00,
2013-01-13 12:49:00,3.2,-2.1,30.17,WNW,283,3.0,11.0,78,0.00,,SKC,0.00,VWS V14.01,2013-01-13 18:49:00,
2013-01-13 12:54:00,3.3,-2.0,30.17,West,280,9.0,13.0,78,0.00,,SKC,0.00,VWS V14.01,2013-01-13 18:54:00,
2013-01-13 12:58:00,3.3,-2.0,30.17,NW,319,7.0,11.0,78,0.00,,SKC,0.00,VWS V14.01,2013-01-13 18:58:00,
2013-01-13 13:03:00,3.5,-1.8,30.17,West,263,6.0,6.0,78,0.00,,SKC,0.00,VWS V14.01,2013-01-13 19:03:00,
2013-01-13 13:08:00,3.6,-1.7,30.17,NW,311,6.0,7.0,78,0.00,,SKC,0.00,VWS V14.01,2013-01-13 19:08:00,
2013-01-13 13:13:00,3.7,-1.6,30.17,NW,307,4.0,7.0,78,0.00,,SKC,0.00,VWS V14.01,2013-01-13 19:13:00,
2013-01-13 13:18:00,3.7,-1.6,30.17,WNW,284,2.0,9.0,78,0.00,,SKC,0.00,VWS V14.01,2013-01-13 19:18:00,
2013-01-13 13:23:00,3.9,-1.7,30.17,NW,308,4.0,7.0,77,0.00,,SKC,0.00,VWS V14.01,2013-01-13 19:23:00,
2013-01-13 13:28:00,4.0,-1.3,30.17,NW,310,4.0,7.0,78,0.00,,SKC,0.00,VWS V14.01,2013-01-13 19:28:00,
2013-01-13 13:33:00,4.2,-1.4,30.17,WNW,294,2.0,11.0,77,0.00,,SKC,0.00,VWS V14.01,2013-01-13 19:33:00,
2013-01-13 13:38:00,4.2,-1.4,30.17,WNW,303,3.0,7.0,77,0.00,,SKC,0.00,VWS V14.01,2013-01-13 19:38:00,
2013-01-13 13:43:00,4.3,-1.3,30.17,NW,314,9.0,10.0,77,0.00,,SKC,0.00,VWS V14.01,2013-01-13 19:43:00,
2013-01-13 13:48:00,4.4,-0.9,30.18,NW,309,10.0,10.0,78,0.00,,SKC,0.00,VWS V14.01,2013-01-13 19:48:00,
2013-01-13 13:53:00,4.6,-1.0,30.17,WNW,291,4.0,7.0,77,0.00,,SKC,0.00,VWS V14.01,2013-01-13 19:53:00,
2013-01-13 13:58:00,4.9,-0.7,30.18,WNW,300,5.0,6.0,77,0.00,,SKC,0.00,VWS V14.01,2013-01-13 19:58:00,
2013-01-13 14:03:00,5.0,1.7,30.18,NW,317,5.0,8.0,86,0.00,,SKC,0.00,VWS V14.01,2013-01-13 20:03:00,
2013-01-13 14:08:00,5.1,-0.8,30.18,NW,304,3.0,9.0,76,0.00,,SKC,0.00,VWS V14.01,2013-01-13 20:08:00,
2013-01-13 14:13:00,5.2,-0.7,30.18,NW,306,5.0,7.0,76,0.00,,SKC,0.00,VWS V14.01,2013-01-13 20:13:00,
2013-01-13 14:18:00,5.4,-0.5,30.18,NNW,330,6.0,12.0,76,0.00,,SKC,0.00,VWS V14.01,2013-01-13 20:18:00,
2013-01-13 14:23:00,5.7,-0.5,30.18,WNW,302,3.0,8.0,75,0.00,,SKC,0.00,VWS V14.01,2013-01-13 20:23:00,
2013-01-13 14:28:00,5.8,-0.1,30.18,NW,325,5.0,10.0,76,0.00,,SKC,0.00,VWS V14.01,2013-01-13 20:28:00,
2013-01-13 14:33:00,5.9,-0.3,30.19,NW,324,6.0,9.0,75,0.00,,SKC,0.00,VWS V14.01,2013-01-13 20:33:00,
2013-01-13 14:38:00,5.8,-0.7,30.19,WNW,288,2.0,9.0,74,0.00,,SKC,0.00,VWS V14.01,2013-01-13 20:38:00,
2013-01-13 14:43:00,6.0,-0.5,30.19,NNW,333,6.0,10.0,74,0.00,,SKC,0.00,VWS V14.01,2013-01-13 20:43:00,
2013-01-13 14:48:00,6.0,-0.5,30.20,WNW,302,4.0,6.0,74,0.00,,SKC,0.00,VWS V14.01,2013-01-13 20:48:00,
2013-01-13 14:53:00,5.7,-1.1,30.20,NW,319,2.0,7.0,73,0.00,,SKC,0.00,VWS V14.01,2013-01-13 20:53:00,
2013-01-13 14:58:00,5.4,-1.4,30.20,WNW,292,3.0,7.0,73,0.00,,SKC,0.00,VWS V14.01,2013-01-13 20:58:00,
2013-01-13 15:03:00,5.4,-1.1,30.20,WNW,292,1.0,7.0,74,0.00,,SKC,0.00,VWS V14.01,2013-01-13 21:03:00,
2013-01-13 15:08:00,5.6,-0.9,30.20,NW,314,3.0,4.0,74,0.00,,SKC,0.00,VWS V14.01,2013-01-13 21:08:00,
2013-01-13 15:13:00,5.9,-0.6,30.20,WSW,258,3.0,7.0,74,0.00,,SKC,0.00,VWS V14.01,2013-01-13 21:13:00,
2013-01-13 15:18:00,6.3,-0.2,30.20,NW,306,4.0,7.0,74,0.00,,SKC,0.00,VWS V14.01,2013-01-13 21:18:00,
2013-01-13 15:23:00,6.5,-0.3,30.20,West,281,1.0,8.0,73,0.00,,SKC,0.00,VWS V14.01,2013-01-13 21:23:00,
2013-01-13 15:28:00,6.6,-0.5,30.20,NW,319,4.0,9.0,72,0.00,,SKC,0.00,VWS V14.01,2013-01-13 21:28:00,
2013-01-13 15:33:00,6.6,-0.5,30.20,NW,307,6.0,7.0,72,0.00,,SKC,0.00,VWS V14.01,2013-01-13 21:33:00,
2013-01-13 15:38:00,6.6,-0.5,30.21,NW,313,6.0,6.0,72,0.00,,SKC,0.00,VWS V14.01,2013-01-13 21:38:00,
2013-01-13 15:43:00,6.4,-0.7,30.21,WNW,295,5.0,9.0,72,0.00,,SKC,0.00,VWS V14.01,2013-01-13 21:43:00,
2013-01-13 15:48:00,6.3,-0.8,30.21,NW,306,5.0,6.0,72,0.00,,SKC,0.00,VWS V14.01,2013-01-13 21:48:00,
2013-01-13 15:53:00,6.1,-1.0,30.21,NW,304,3.0,6.0,72,0.00,,SKC,0.00,VWS V14.01,2013-01-13 21:53:00,
2013-01-13 15:58:00,6.0,-1.1,30.21,WNW,297,2.0,6.0,72,0.00,,SKC,0.00,VWS V14.01,2013-01-13 21:58:00,
2013-01-13 16:03:00,6.0,-1.1,30.22,WNW,287,3.0,6.0,72,0.00,,SKC,0.00,VWS V14.01,2013-01-13 22:03:00,
2013-01-13 16:08:00,6.0,-0.8,30.22,WNW,299,2.0,4.0,73,0.00,,SKC,0.00,VWS V14.01,2013-01-13 22:08:00,
2013-01-13 16:13:00,6.0,-0.8,30.22,NW,313,4.0,5.0,73,0.00,,SKC,0.00,VWS V14.01,2013-01-13 22:13:00,
2013-01-13 16:18:00,6.1,-0.7,30.22,WSW,242,1.0,3.0,73,0.00,,SKC,0.00,VWS V14.01,2013-01-13 22:18:00,
2013-01-13 16:23:00,6.1,-0.4,30.22,West,276,2.0,3.0,74,0.00,,SKC,0.00,VWS V14.01,2013-01-13 22:23:00,
2013-01-13 16:28:00,6.1,-0.4,30.22,SW,229,0.0,1.0,74,0.00,,SKC,0.00,VWS V14.01,2013-01-13 22:28:00,
2013-01-13 16:33:00,6.2,-0.3,30.22,West,263,0.0,3.0,74,0.00,,SKC,0.00,VWS V14.01,2013-01-13 22:33:00,
2013-01-13 16:38:00,6.1,-0.4,30.22,WSW,257,4.0,4.0,74,0.00,,SKC,0.00,VWS V14.01,2013-01-13 22:38:00,
2013-01-13 16:43:00,6.1,-0.4,30.22,NW,306,0.0,0.0,74,0.00,,SKC,0.00,VWS V14.01,2013-01-13 22:43:00,
2013-01-13 16:48:00,6.1,-0.4,30.22,West,263,1.0,2.0,74,0.00,,SKC,0.00,VWS V14.01,2013-01-13 22:48:00,
2013-01-13 16:53:00,6.1,-0.4,30.22,West,271,0.0,0.0,74,0.00,,SKC,0.00,VWS V14.01,2013-01-13 22:53:00,
2013-01-13 16:58:00,6.0,-0.5,30.23,WSW,250,0.0,0.0,74,0.00,,SKC,0.00,VWS V14.01,2013-01-13 22:58:00,
2013-01-13 17:03:00,5.9,-0.3,30.23,WSW,257,0.0,2.0,75,0.00,,SKC,0.00,VWS V14.01,2013-01-13 23:03:00,
2013-01-13 17:08:00,5.8,-0.4,30.23,SW,234,0.0,3.0,75,0.00,,SKC,0.00,VWS V14.01,2013-01-13 23:08:00,
2013-01-13 17:13:00,5.8,-0.4,30.23,WSW,240,2.0,4.0,75,0.00,,SKC,0.00,VWS V14.01,2013-01-13 23:13:00,
2013-01-13 17:18:00,5.7,-0.5,30.23,West,277,0.0,3.0,75,0.00,,SKC,0.00,VWS V14.01,2013-01-13 23:18:00,
2013-01-13 17:23:00,5.8,-0.4,30.23,SW,232,2.0,5.0,75,0.00,,SKC,0.00,VWS V14.01,2013-01-13 23:23:00,
2013-01-13 17:28:00,5.8,-0.1,30.23,WNW,293,1.0,3.0,76,0.00,,SKC,0.00,VWS V14.01,2013-01-13 23:28:00,
2013-01-13 17:33:00,5.8,-0.1,30.24,WSW,247,2.0,3.0,76,0.00,,SKC,0.00,VWS V14.01,2013-01-13 23:33:00,
2013-01-13 17:38:00,5.9,0.0,30.24,WNW,282,0.0,3.0,76,0.00,,SKC,0.00,VWS V14.01,2013-01-13 23:38:00,
2013-01-13 17:43:00,5.9,0.0,30.24,West,269,2.0,6.0,76,0.00,,SKC,0.00,VWS V14.01,2013-01-13 23:43:00,
2013-01-13 17:48:00,6.0,0.1,30.24,West,277,3.0,4.0,76,0.00,,SKC,0.00,VWS V14.01,2013-01-13 23:48:00,
2013-01-13 17:53:00,5.9,0.0,30.24,SW,233,6.0,6.0,76,0.00,,SKC,0.00,VWS V14.01,2013-01-13 23:53:00,
2013-01-13 17:58:00,5.9,-0.3,30.24,West,276,3.0,6.0,75,0.00,,SKC,0.00,VWS V14.01,2013-01-13 23:58:00,
2013-01-13 18:03:00,5.9,-0.3,30.24,SW,231,3.0,5.0,75,0.00,,SKC,0.00,VWS V14.01,2013-01-14 00:03:00,
2013-01-13 18:08:00,5.9,0.0,30.24,SSW,210,0.0,3.0,76,0.00,,SKC,0.00,VWS V14.01,2013-01-14 00:08:00,
2013-01-13 18:13:00,5.8,-0.1,30.24,NW,304,2.0,7.0,76,0.00,,SKC,0.00,VWS V14.01,2013-01-14 00:13:00,
2013-01-13 18:18:00,5.8,-0.1,30.24,SW,221,3.0,4.0,76,0.00,,SKC,0.00,VWS V14.01,2013-01-14 00:18:00,
2013-01-13 18:23:00,5.7,-0.2,30.24,West,270,1.0,6.0,76,0.00,,SKC,0.00,VWS V14.01,2013-01-14 00:23:00,
2013-01-13 18:28:00,5.6,-0.3,30.24,WNW,292,0.0,4.0,76,0.00,,SKC,0.00,VWS V14.01,2013-01-14 00:28:00,
2013-01-13 18:33:00,5.5,-0.4,30.24,WSW,257,0.0,7.0,76,0.00,,SKC,0.00,VWS V14.01,2013-01-14 00:33:00,
2013-01-13 18:38:00,5.4,-0.5,30.24,SSW,213,2.0,5.0,76,0.00,,SKC,0.00,VWS V14.01,2013-01-14 00:38:00,
2013-01-13 18:43:00,5.3,-0.6,30.24,West,263,1.0,6.0,76,0.00,,SKC,0.00,VWS V14.01,2013-01-14 00:43:00,
2013-01-13 18:48:00,5.2,-0.4,30.24,WSW,246,0.0,4.0,77,0.00,,SKC,0.00,VWS V14.01,2013-01-14 00:48:00,
2013-01-13 18:53:00,5.1,-0.5,30.25,WSW,250,1.0,3.0,77,0.00,,SKC,0.00,VWS V14.01,2013-01-14 00:53:00,
2013-01-13 18:58:00,5.0,-0.6,30.25,West,269,4.0,7.0,77,0.00,,SKC,0.00,VWS V14.01,2013-01-14 00:58:00,
2013-01-13 19:03:00,4.9,-0.7,30.25,West,269,5.0,5.0,77,0.00,,SKC,0.00,VWS V14.01,2013-01-14 01:03:00,
2013-01-13 19:08:00,4.9,-0.7,30.25,WSW,241,4.0,6.0,77,0.00,,SKC,0.00,VWS V14.01,2013-01-14 01:08:00,
2013-01-13 19:13:00,4.8,-0.8,30.25,West,269,5.0,6.0,77,0.00,,SKC,0.00,VWS V14.01,2013-01-14 01:13:00,
2013-01-13 19:18:00,4.8,-0.8,30.25,West,262,1.0,5.0,77,0.00,,SKC,0.00,VWS V14.01,2013-01-14 01:18:00,
2013-01-13 19:23:00,4.7,-0.9,30.25,SW,223,3.0,5.0,77,0.00,,SKC,0.00,VWS V14.01,2013-01-14 01:23:00,
2013-01-13 19:28:00,4.7,-0.9,30.25,WSW,238,3.0,3.0,77,0.00,,SKC,0.00,VWS V14.01,2013-01-14 01:28:00,
2013-01-13 19:33:00,4.6,-1.0,30.25,WSW,243,0.0,3.0,77,0.00,,SKC,0.00,VWS V14.01,2013-01-14 01:33:00,
2013-01-13 19:38:00,4.6,-1.0,30.25,WNW,290,0.0,1.0,77,0.00,,SKC,0.00,VWS V14.01,2013-01-14 01:38:00,
2013-01-13 19:43:00,4.6,-1.0,30.25,SW,234,0.0,6.0,77,0.00,,SKC,0.00,VWS V14.01,2013-01-14 01:43:00,
2013-01-13 19:48:00,4.6,-1.0,30.25,WNW,298,1.0,3.0,77,0.00,,SKC,0.00,VWS V14.01,2013-01-14 01:48:00,
2013-01-13 19:53:00,4.6,-1.0,30.25,West,273,0.0,6.0,77,0.00,,SKC,0.00,VWS V14.01,2013-01-14 01:53:00,
2013-01-13 19:58:00,4.6,-1.0,30.25,West,279,2.0,2.0,77,0.00,,SKC,0.00,VWS V14.01,2013-01-14 01:58:00,
2013-01-13 20:03:00,4.7,-0.9,30.26,West,268,1.0,4.0,77,0.00,,SKC,0.00,VWS V14.01,2013-01-14 02:03:00,
2013-01-13 20:08:00,4.6,-1.0,30.26,West,273,3.0,3.0,77,0.00,,SKC,0.00,VWS V14.01,2013-01-14 02:08:00,
2013-01-13 20:13:00,4.6,-1.0,30.26,WSW,246,0.0,3.0,77,0.00,,SKC,0.00,VWS V14.01,2013-01-14 02:13:00,
2013-01-13 20:18:00,4.6,-1.0,30.26,WNW,292,0.0,2.0,77,0.00,,SKC,0.00,VWS V14.01,2013-01-14 02:18:00,
2013-01-13 20:23:00,4.6,-1.0,30.26,SSW,212,0.0,2.0,77,0.00,,SKC,0.00,VWS V14.01,2013-01-14 02:23:00,
2013-01-13 20:28:00,4.5,-0.8,30.26,West,265,0.0,3.0,78,0.00,,SKC,0.00,VWS V14.01,2013-01-14 02:28:00,
2013-01-13 20:33:00,4.5,-0.8,30.26,West,280,1.0,4.0,78,0.00,,SKC,0.00,VWS V14.01,2013-01-14 02:33:00,
2013-01-13 20:38:00,4.5,-0.8,30.27,West,261,0.0,5.0,78,0.00,,SKC,0.00,VWS V14.01,2013-01-14 02:38:00,
2013-01-13 20:43:00,4.4,-0.9,30.27,NW,326,0.0,2.0,78,0.00,,SKC,0.00,VWS V14.01,2013-01-14 02:43:00,
2013-01-13 20:48:00,4.4,-0.9,30.27,NW,310,0.0,4.0,78,0.00,,SKC,0.00,VWS V14.01,2013-01-14 02:48:00,
2013-01-13 20:53:00,4.4,-0.9,30.27,WSW,252,2.0,3.0,78,0.00,,SKC,0.00,VWS V14.01,2013-01-14 02:53:00,
2013-01-13 20:58:00,4.5,-0.6,30.27,West,269,1.0,5.0,79,0.00,,SKC,0.00,VWS V14.01,2013-01-14 02:58:00,
2013-01-13 21:03:00,4.5,-0.6,30.27,SW,217,0.0,0.0,79,0.00,,SKC,0.00,VWS V14.01,2013-01-14 03:03:00,
2013-01-13 21:08:00,4.5,-0.6,30.26,West,276,0.0,1.0,79,0.00,,SKC,0.00,VWS V14.01,2013-01-14 03:08:00,
2013-01-13 21:13:00,4.5,-0.3,30.26,West,272,0.0,3.0,80,0.00,,SKC,0.00,VWS V14.01,2013-01-14 03:13:00,
2013-01-13 21:18:00,4.5,-0.3,30.26,WNW,292,2.0,2.0,80,0.00,,SKC,0.00,VWS V14.01,2013-01-14 03:18:00,
2013-01-13 21:23:00,4.5,-0.3,30.27,West,278,0.0,0.0,80,0.00,,SKC,0.00,VWS V14.01,2013-01-14 03:23:00,
2013-01-13 21:28:00,4.4,-0.4,30.27,West,270,0.0,3.0,80,0.00,,SKC,0.00,VWS V14.01,2013-01-14 03:28:00,
2013-01-13 21:33:00,4.4,-0.4,30.27,WSW,237,0.0,2.0,80,0.00,,SKC,0.00,VWS V14.01,2013-01-14 03:33:00,
2013-01-13 21:38:00,4.4,-0.4,30.27,West,269,0.0,1.0,80,0.00,,SKC,0.00,VWS V14.01,2013-01-14 03:38:00,
2013-01-13 21:43:00,4.2,-0.6,30.27,WSW,243,1.0,3.0,80,0.00,,SKC,0.00,VWS V14.01,2013-01-14 03:43:00,
2013-01-13 21:48:00,4.2,-0.3,30.27,NNW,336,0.0,1.0,81,0.00,,SKC,0.00,VWS V14.01,2013-01-14 03:48:00,
2013-01-13 21:53:00,4.1,-0.4,30.28,SW,234,0.0,2.0,81,0.00,,SKC,0.00,VWS V14.01,2013-01-14 03:53:00,
2013-01-13 21:58:00,4.2,-0.3,30.27,West,280,0.0,1.0,81,0.00,,SKC,0.00,VWS V14.01,2013-01-14 03:58:00,
2013-01-13 22:03:00,4.2,-0.3,30.27,WNW,290,0.0,2.0,81,0.00,,SKC,0.00,VWS V14.01,2013-01-14 04:03:00,
2013-01-13 22:08:00,4.2,-0.3,30.28,West,259,0.0,0.0,81,0.00,,SKC,0.00,VWS V14.01,2013-01-14 04:08:00,
2013-01-13 22:13:00,4.2,-0.3,30.28,SSW,206,0.0,3.0,81,0.00,,SKC,0.00,VWS V14.01,2013-01-14 04:13:00,
2013-01-13 22:18:00,4.2,-0.1,30.28,WSW,241,0.0,4.0,82,0.00,,SKC,0.00,VWS V14.01,2013-01-14 04:18:00,
2013-01-13 22:23:00,4.2,-0.1,30.28,West,270,2.0,3.0,82,0.00,,SKC,0.00,VWS V14.01,2013-01-14 04:23:00,
2013-01-13 22:28:00,4.2,-0.1,30.28,West,265,0.0,3.0,82,0.00,,SKC,0.00,VWS V14.01,2013-01-14 04:28:00,
2013-01-13 22:33:00,4.2,-0.1,30.28,West,269,0.0,3.0,82,0.00,,SKC,0.00,VWS V14.01,2013-01-14 04:33:00,
2013-01-13 22:38:00,4.2,-0.1,30.28,WSW,241,0.0,0.0,82,0.00,,SKC,0.00,VWS V14.01,2013-01-14 04:38:00,
2013-01-13 22:43:00,4.3,0.0,30.28,West,279,0.0,0.0,82,0.00,,SKC,0.00,VWS V14.01,2013-01-14 04:43:00,
2013-01-13 22:48:00,4.2,-0.1,30.28,West,263,0.0,0.0,82,0.00,,SKC,0.00,VWS V14.01,2013-01-14 04:48:00,
2013-01-13 22:53:00,4.2,-0.1,30.28,WSW,249,0.0,1.0,82,0.00,,SKC,0.00,VWS V14.01,2013-01-14 04:53:00,
2013-01-13 22:58:00,4.2,-0.1,30.28,West,259,0.0,0.0,82,0.00,,SKC,0.00,VWS V14.01,2013-01-14 04:58:00,
2013-01-13 23:00:00,4.1,-0.2,30.28,West,259,3.0,3.0,82,0.00,,SKC,0.00,VWS V14.01,2013-01-14 05:00:00,
2013-01-13 23:02:00,4.1,-0.2,30.29,West,259,0.0,3.0,82,0.00,,SKC,0.00,VWS V14.01,2013-01-14 05:02:00,
2013-01-13 23:03:00,4.1,-0.2,30.28,West,259,1.0,2.0,82,0.00,,SKC,0.00,VWS V14.01,2013-01-14 05:03:00,
2013-01-13 23:08:00,4.0,-0.3,30.28,West,259,1.0,3.0,82,0.00,,SKC,0.00,VWS V14.01,2013-01-14 05:08:00,
2013-01-13 23:13:00,3.9,-0.4,30.29,West,259,0.0,1.0,82,0.00,,SKC,0.00,VWS V14.01,2013-01-14 05:13:00,
2013-01-13 23:18:00,3.9,-0.1,30.29,West,272,3.0,3.0,83,0.00,,SKC,0.00,VWS V14.01,2013-01-14 05:18:00,
2013-01-13 23:23:00,4.0,0.0,30.29,West,276,0.0,2.0,83,0.00,,SKC,0.00,VWS V14.01,2013-01-14 05:23:00,
2013-01-13 23:28:00,4.0,0.0,30.29,WNW,290,0.0,3.0,83,0.00,,SKC,0.00,VWS V14.01,2013-01-14 05:28:00,
2013-01-13 23:33:00,4.0,0.0,30.29,WNW,291,0.0,3.0,83,0.00,,SKC,0.00,VWS V14.01,2013-01-14 05:33:00,
2013-01-13 23:38:00,4.0,0.0,30.29,WNW,283,1.0,4.0,83,0.00,,SKC,0.00,VWS V14.01,2013-01-14 05:38:00,
2013-01-13 23:43:00,4.0,0.0,30.29,West,266,0.0,4.0,83,0.00,,SKC,0.00,VWS V14.01,2013-01-14 05:43:00,
2013-01-13 23:48:00,4.0,0.0,30.29,WNW,286,0.0,3.0,83,0.00,,SKC,0.00,VWS V14.01,2013-01-14 05:48:00,
2013-01-13 23:53:00,4.0,0.0,30.29,WNW,284,0.0,3.0,83,0.00,,SKC,0.00,VWS V14.01,2013-01-14 05:53:00,
2013-01-13 23:58:00,4.0,0.0,30.29,WSW,254,0.0,2.0,83,0.00,,SKC,0.00,VWS V14.01,2013-01-14 05:58:00,